Home   Weather   Luanda   Past weeks
Flag for Angola

Past Weather in Luanda, Angola — Yesterday and Last 2 Weeks

Now
75 °F

Passing clouds.


Feels Like: 75 °F
Forecast: 84 / 75 °F
Wind: 5 mph from South

Location: Luanda Airport

Current Time: May 21, 2019 at 1:51:07 am

Latest Report: May 21, 2019 at 1:00 am


Visibility: 5 mi

Pressure: 29.86 "Hg

Humidity: 89%

Dew Point: 72 °F

Location of LuandaLocation

Past Weather in Luanda — Graph

°F

Luanda Temperature Yesterday

Maximum temperature yesterday: 86 °F (at 10:00 am)
Minimum temperature yesterday: 77 °F (at 6:00 am)
Average temperature yesterday: 81 °F

High & Low Weather Summary for the Past Weeks

 TemperatureHumidityPressure
High90 °F (May 15, 12:00 pm)100% (May 12, 9:00 pm)29.95 "Hg (May 12, 9:00 pm)
Low75 °F (May 12, 9:00 pm)62% (May 11, 12:00 pm)29.71 "Hg (May 8, 4:00 pm)
Average81 °F82%29.83 "Hg
* Reported May 6 12:00 am — May 21 12:00 am, Luanda. Weather by CustomWeather, © 2019

Note: Actual official high and low records may vary slightly from our data, if they occured in-between our weather recording intervals... More about our weather records

Advertising

Luanda Weather History for the Previous 24 Hours

Scroll right to see more
 ConditionsComfort  
Time TempWeatherWind HumidityBarometerVisibility
12:00 am
Tue, May 21
77 °FPassing clouds.6 mph83%29.86 "Hg5 mi
11:00 pm
Mon, May 20
77 °FPassing clouds.7 mph83%29.86 "Hg6 mi
10:00 pm77 °FPassing clouds.8 mph83%29.86 "Hg6 mi
9:00 pm77 °FPassing clouds.12 mph83%29.83 "Hg6 mi
8:00 pm79 °FPassing clouds.12 mph79%29.83 "Hg6 mi
7:00 pm79 °FPassing clouds.7 mph79%29.80 "HgN/A
6:00 pm81 °FPassing clouds.12 mph79%29.80 "HgN/A
5:00 pm82 °FPassing clouds.14 mph70%29.80 "HgN/A
4:00 pm82 °FPassing clouds.9 mph74%29.77 "HgN/A
3:00 pm84 °FPassing clouds.12 mph70%29.77 "HgN/A
2:00 pm86 °FPassing clouds.12 mph66%29.80 "HgN/A
1:00 pm86 °FPassing clouds.9 mph66%29.83 "HgN/A
12:00 pm86 °FScattered clouds.9 mph66%29.86 "HgN/A
11:00 am84 °FScattered clouds.7 mph74%29.89 "HgN/A
10:00 am86 °FScattered clouds.5 mph66%29.92 "HgN/A
9:00 am82 °FPassing clouds.5 mph74%29.92 "Hg5 mi
8:00 am81 °FScattered clouds.5 mph79%29.89 "Hg4 mi
7:00 am77 °FPartly sunny.2 mph89%29.89 "Hg5 mi
6:00 am77 °FPassing clouds.5 mph89%29.89 "Hg5 mi
5:00 am79 °FPassing clouds.7 mph84%29.89 "Hg5 mi
4:00 am79 °FPassing clouds.5 mph84%29.89 "Hg5 mi
3:00 am79 °FPassing clouds.9 mph84%29.89 "Hg5 mi
2:00 am79 °FPassing clouds.7 mph89%29.89 "Hg6 mi
1:00 am79 °FPassing clouds.6 mph89%29.92 "Hg6 mi
Weather by CustomWeather, © 2019

See weather overview